Time,TemperatureF,DewpointF,PressureIn,WindDirection,WindDirectionDegrees,WindSpeedMPH,WindSpeedGustMPH,Humidity,HourlyPrecipIn,Conditions,Clouds,dailyrainin,SoftwareType,DateUTC
2013-07-28 00:02:00,57.2,46.9,30.06,WNW,300,0.0,1.0,68,0.00,,,0.00,WUHU216DAVISVP2,2013-07-28 05:02:00,
2013-07-28 00:07:00,57.1,47.2,30.06,WNW,300,0.0,0.0,69,0.00,,,0.00,WUHU216DAVISVP2,2013-07-28 05:07:00,
2013-07-28 00:12:00,56.8,46.9,30.06,WNW,300,0.0,0.0,69,0.00,,,0.00,WUHU216DAVISVP2,2013-07-28 05:12:00,
2013-07-28 00:17:00,56.5,46.8,30.06,WNW,300,0.0,0.0,70,0.00,,,0.00,WUHU216DAVISVP2,2013-07-28 05:17:00,
2013-07-28 00:22:00,56.1,46.4,30.06,WNW,300,0.0,0.0,70,0.00,,,0.00,WUHU216DAVISVP2,2013-07-28 05:22:00,
2013-07-28 00:27:00,55.8,46.7,30.06,WNW,300,0.0,0.0,71,0.00,,,0.00,WUHU216DAVISVP2,2013-07-28 05:27:00,
2013-07-28 00:32:00,55.6,46.8,30.06,WNW,300,0.0,0.0,72,0.00,,,0.00,WUHU216DAVISVP2,2013-07-28 05:32:00,
2013-07-28 00:37:00,55.5,46.7,30.06,WNW,300,0.0,0.0,72,0.00,,,0.00,WUHU216DAVISVP2,2013-07-28 05:37:00,
2013-07-28 00:42:00,55.4,47.0,30.06,WNW,300,0.0,0.0,73,0.00,,,0.00,WUHU216DAVISVP2,2013-07-28 05:42:00,
2013-07-28 00:47:00,55.2,46.8,30.06,WNW,300,0.0,0.0,73,0.00,,,0.00,WUHU216DAVISVP2,2013-07-28 05:47:00,
2013-07-28 00:52:00,54.9,46.5,30.06,WNW,300,0.0,0.0,73,0.00,,,0.00,WUHU216DAVISVP2,2013-07-28 05:52:00,
2013-07-28 00:57:00,54.7,46.7,30.06,WNW,300,0.0,0.0,74,0.00,,,0.00,WUHU216DAVISVP2,2013-07-28 05:57:00,
2013-07-28 01:02:00,54.6,46.6,30.06,WNW,300,0.0,0.0,74,0.00,,,0.00,WUHU216DAVISVP2,2013-07-28 06:02:00,
2013-07-28 01:07:00,54.7,46.9,30.06,WNW,300,0.0,0.0,75,0.00,,,0.00,WUHU216DAVISVP2,2013-07-28 06:07:00,
2013-07-28 01:12:00,55.2,46.8,30.06,WNW,300,0.0,0.0,73,0.00,,,0.00,WUHU216DAVISVP2,2013-07-28 06:12:00,
2013-07-28 01:17:00,55.1,46.7,30.06,WNW,300,0.0,0.0,73,0.00,,,0.00,WUHU216DAVISVP2,2013-07-28 06:17:00,
2013-07-28 01:22:00,55.0,46.5,30.06,WNW,300,0.0,1.0,73,0.00,,,0.00,WUHU216DAVISVP2,2013-07-28 06:22:00,
2013-07-28 01:27:00,55.1,46.6,30.06,WNW,300,0.0,1.0,73,0.00,,,0.00,WUHU216DAVISVP2,2013-07-28 06:27:00,
2013-07-28 01:32:00,55.2,46.8,30.06,WNW,300,0.0,1.0,73,0.00,,,0.00,WUHU216DAVISVP2,2013-07-28 06:32:00,
2013-07-28 01:37:00,55.1,46.7,30.06,WNW,300,0.0,1.0,73,0.00,,,0.00,WUHU216DAVISVP2,2013-07-28 06:37:00,
2013-07-28 01:42:00,54.9,46.9,30.06,WNW,300,0.0,1.0,74,0.00,,,0.00,WUHU216DAVISVP2,2013-07-28 06:42:00,
2013-07-28 01:47:00,54.8,46.8,30.06,WNW,300,0.0,1.0,74,0.00,,,0.00,WUHU216DAVISVP2,2013-07-28 06:47:00,
2013-07-28 01:52:00,54.7,46.7,30.06,WNW,300,0.0,1.0,74,0.00,,,0.00,WUHU216DAVISVP2,2013-07-28 06:52:00,
2013-07-28 01:57:00,54.6,46.9,30.06,WNW,300,0.0,1.0,75,0.00,,,0.00,WUHU216DAVISVP2,2013-07-28 06:57:00,
2013-07-28 02:02:00,54.5,46.8,30.06,WNW,300,0.0,1.0,75,0.00,,,0.00,WUHU216DAVISVP2,2013-07-28 07:02:00,
2013-07-28 02:07:00,54.4,47.1,30.06,WNW,300,0.0,1.0,76,0.00,,,0.00,WUHU216DAVISVP2,2013-07-28 07:07:00,
2013-07-28 02:12:00,54.3,47.0,30.06,WNW,300,0.0,1.0,76,0.00,,,0.00,WUHU216DAVISVP2,2013-07-28 07:12:00,
2013-07-28 02:17:00,54.0,47.0,30.06,WNW,300,0.0,1.0,77,0.00,,,0.00,WUHU216DAVISVP2,2013-07-28 07:17:00,
2013-07-28 02:22:00,53.7,46.7,30.06,WNW,300,0.0,1.0,77,0.00,,,0.00,WUHU216DAVISVP2,2013-07-28 07:22:00,
2013-07-28 02:27:00,53.6,46.6,30.05,WNW,300,0.0,1.0,77,0.00,,,0.00,WUHU216DAVISVP2,2013-07-28 07:27:00,
2013-07-28 02:32:00,53.5,46.8,30.05,WNW,300,0.0,1.0,78,0.00,,,0.00,WUHU216DAVISVP2,2013-07-28 07:32:00,
2013-07-28 02:37:00,53.3,46.6,30.05,WNW,300,0.0,1.0,78,0.00,,,0.00,WUHU216DAVISVP2,2013-07-28 07:37:00,
2013-07-28 02:42:00,53.0,46.7,30.05,WNW,300,0.0,1.0,79,0.00,,,0.00,WUHU216DAVISVP2,2013-07-28 07:42:00,
2013-07-28 02:47:00,52.8,46.5,30.05,WNW,300,0.0,0.0,79,0.00,,,0.00,WUHU216DAVISVP2,2013-07-28 07:47:00,
2013-07-28 02:52:00,52.6,46.3,30.05,WNW,300,0.0,0.0,79,0.00,,,0.00,WUHU216DAVISVP2,2013-07-28 07:52:00,
2013-07-28 02:57:00,52.4,46.4,30.05,WNW,300,0.0,0.0,80,0.00,,,0.00,WUHU216DAVISVP2,2013-07-28 07:57:00,
2013-07-28 03:02:00,52.4,46.4,30.04,WNW,300,0.0,0.0,80,0.00,,,0.00,WUHU216DAVISVP2,2013-07-28 08:02:00,
2013-07-28 03:07:00,52.5,46.5,30.04,WNW,300,0.0,0.0,80,0.00,,,0.00,WUHU216DAVISVP2,2013-07-28 08:07:00,
2013-07-28 03:12:00,52.4,46.4,30.05,WNW,300,0.0,0.0,80,0.00,,,0.00,WUHU216DAVISVP2,2013-07-28 08:12:00,
2013-07-28 03:17:00,52.3,46.4,30.05,WNW,300,0.0,0.0,80,0.00,,,0.00,WUHU216DAVISVP2,2013-07-28 08:17:00,
2013-07-28 03:22:00,52.1,46.5,30.04,WNW,300,0.0,0.0,81,0.00,,,0.00,WUHU216DAVISVP2,2013-07-28 08:22:00,
2013-07-28 03:27:00,51.8,46.2,30.04,WNW,300,0.0,0.0,81,0.00,,,0.00,WUHU216DAVISVP2,2013-07-28 08:27:00,
2013-07-28 03:32:00,51.7,46.4,30.04,WNW,300,0.0,0.0,82,0.00,,,0.00,WUHU216DAVISVP2,2013-07-28 08:32:00,
2013-07-28 03:37:00,51.7,46.4,30.04,WNW,300,0.0,0.0,82,0.00,,,0.00,WUHU216DAVISVP2,2013-07-28 08:37:00,
2013-07-28 03:42:00,51.8,46.5,30.04,WNW,300,0.0,0.0,82,0.00,,,0.00,WUHU216DAVISVP2,2013-07-28 08:42:00,
2013-07-28 03:47:00,51.8,46.5,30.04,NW,304,0.0,0.0,82,0.00,,,0.00,WUHU216DAVISVP2,2013-07-28 08:47:00,
2013-07-28 03:52:00,51.9,46.3,30.04,NW,304,0.0,0.0,81,0.00,,,0.00,WUHU216DAVISVP2,2013-07-28 08:52:00,
2013-07-28 03:57:00,52.2,46.2,30.04,NW,304,0.0,0.0,80,0.00,,,0.00,WUHU216DAVISVP2,2013-07-28 08:57:00,
2013-07-28 04:02:00,52.6,46.3,30.04,NW,309,0.0,0.0,79,0.00,,,0.00,WUHU216DAVISVP2,2013-07-28 09:02:00,
2013-07-28 04:07:00,52.7,46.4,30.04,NW,309,0.0,0.0,79,0.00,,,0.00,WUHU216DAVISVP2,2013-07-28 09:07:00,
2013-07-28 04:12:00,52.8,46.5,30.04,NW,314,0.0,0.0,79,0.00,,,0.00,WUHU216DAVISVP2,2013-07-28 09:12:00,
2013-07-28 04:17:00,52.6,46.0,30.04,NW,314,0.0,0.0,78,0.00,,,0.00,WUHU216DAVISVP2,2013-07-28 09:17:00,
2013-07-28 04:22:00,52.6,46.0,30.04,NW,317,0.0,0.0,78,0.00,,,0.00,WUHU216DAVISVP2,2013-07-28 09:22:00,
2013-07-28 04:27:00,52.6,46.0,30.05,NW,317,0.0,0.0,78,0.00,,,0.00,WUHU216DAVISVP2,2013-07-28 09:27:00,
2013-07-28 04:32:00,52.4,45.8,30.04,NW,317,0.0,0.0,78,0.00,,,0.00,WUHU216DAVISVP2,2013-07-28 09:32:00,
2013-07-28 04:37:00,52.4,45.8,30.04,NW,317,0.0,0.0,78,0.00,,,0.00,WUHU216DAVISVP2,2013-07-28 09:37:00,
2013-07-28 04:42:00,52.3,45.7,30.05,NW,316,0.0,0.0,78,0.00,,,0.00,WUHU216DAVISVP2,2013-07-28 09:42:00,
2013-07-28 04:47:00,52.0,45.7,30.04,NW,316,0.0,0.0,79,0.00,,,0.00,WUHU216DAVISVP2,2013-07-28 09:47:00,
2013-07-28 04:52:00,51.7,45.4,30.05,NW,316,0.0,0.0,79,0.00,,,0.00,WUHU216DAVISVP2,2013-07-28 09:52:00,
2013-07-28 04:57:00,51.5,45.6,30.05,NW,316,0.0,0.0,80,0.00,,,0.00,WUHU216DAVISVP2,2013-07-28 09:57:00,
2013-07-28 05:02:00,51.3,45.4,30.05,NW,316,0.0,0.0,80,0.00,,,0.00,WUHU216DAVISVP2,2013-07-28 10:02:00,
2013-07-28 05:07:00,51.2,45.6,30.05,NW,316,0.0,0.0,81,0.00,,,0.00,WUHU216DAVISVP2,2013-07-28 10:07:00,
2013-07-28 05:12:00,50.9,45.3,30.05,NW,316,0.0,0.0,81,0.00,,,0.00,WUHU216DAVISVP2,2013-07-28 10:12:00,
2013-07-28 05:17:00,50.7,45.4,30.05,NW,316,0.0,0.0,82,0.00,,,0.00,WUHU216DAVISVP2,2013-07-28 10:17:00,
2013-07-28 05:22:00,50.5,45.2,30.05,NW,316,0.0,0.0,82,0.00,,,0.00,WUHU216DAVISVP2,2013-07-28 10:22:00,
2013-07-28 05:27:00,50.3,45.3,30.05,NW,316,0.0,0.0,83,0.00,,,0.00,WUHU216DAVISVP2,2013-07-28 10:27:00,
2013-07-28 05:32:00,50.1,45.1,30.05,NW,316,0.0,0.0,83,0.00,,,0.00,WUHU216DAVISVP2,2013-07-28 10:32:00,
2013-07-28 05:37:00,49.9,45.3,30.05,NW,316,0.0,0.0,84,0.00,,,0.00,WUHU216DAVISVP2,2013-07-28 10:37:00,
2013-07-28 05:42:00,49.7,45.1,30.05,NW,316,0.0,0.0,84,0.00,,,0.00,WUHU216DAVISVP2,2013-07-28 10:42:00,
2013-07-28 05:47:00,49.7,45.1,30.05,NW,316,0.0,0.0,84,0.00,,,0.00,WUHU216DAVISVP2,2013-07-28 10:47:00,
2013-07-28 05:52:00,49.6,45.3,30.05,NW,316,0.0,0.0,85,0.00,,,0.00,WUHU216DAVISVP2,2013-07-28 10:52:00,
2013-07-28 05:58:00,49.5,45.2,30.05,NW,316,0.0,0.0,85,0.00,,,0.00,WUHU216DAVISVP2,2013-07-28 10:58:00,
2013-07-28 06:02:00,49.5,45.2,30.05,NW,316,0.0,0.0,85,0.00,,,0.00,WUHU216DAVISVP2,2013-07-28 11:02:00,
2013-07-28 06:07:00,49.5,45.2,30.05,NW,316,0.0,0.0,85,0.00,,,0.00,WUHU216DAVISVP2,2013-07-28 11:07:00,
2013-07-28 06:12:00,49.5,45.2,30.05,NW,316,0.0,0.0,85,0.00,,,0.00,WUHU216DAVISVP2,2013-07-28 11:12:00,
2013-07-28 06:17:00,49.6,45.6,30.06,NW,316,0.0,0.0,86,0.00,,,0.00,WUHU216DAVISVP2,2013-07-28 11:17:00,
2013-07-28 06:22:00,49.6,45.3,30.06,NW,316,0.0,0.0,85,0.00,,,0.00,WUHU216DAVISVP2,2013-07-28 11:22:00,
2013-07-28 06:27:00,49.6,45.3,30.06,NW,316,0.0,0.0,85,0.00,,,0.00,WUHU216DAVISVP2,2013-07-28 11:27:00,
2013-07-28 06:32:00,49.5,45.5,30.06,NW,316,0.0,0.0,86,0.00,,,0.00,WUHU216DAVISVP2,2013-07-28 11:32:00,
2013-07-28 06:37:00,49.5,45.2,30.06,NW,316,0.0,0.0,85,0.00,,,0.00,WUHU216DAVISVP2,2013-07-28 11:37:00,
2013-07-28 06:42:00,49.6,45.3,30.06,NW,316,0.0,0.0,85,0.00,,,0.00,WUHU216DAVISVP2,2013-07-28 11:42:00,
2013-07-28 06:47:00,49.7,45.4,30.06,NW,316,0.0,0.0,85,0.00,,,0.00,WUHU216DAVISVP2,2013-07-28 11:47:00,
2013-07-28 06:52:00,49.8,45.5,30.06,NW,316,0.0,0.0,85,0.00,,,0.00,WUHU216DAVISVP2,2013-07-28 11:52:00,
2013-07-28 06:57:00,49.9,45.6,30.06,NW,316,0.0,0.0,85,0.00,,,0.00,WUHU216DAVISVP2,2013-07-28 11:57:00,
2013-07-28 07:02:00,50.0,45.4,30.06,NW,316,0.0,0.0,84,0.00,,,0.00,WUHU216DAVISVP2,2013-07-28 12:02:00,
2013-07-28 07:07:00,50.2,45.6,30.06,NW,316,0.0,0.0,84,0.00,,,0.00,WUHU216DAVISVP2,2013-07-28 12:07:00,
2013-07-28 07:12:00,50.5,45.8,30.06,NW,316,0.0,0.0,84,0.00,,,0.00,WUHU216DAVISVP2,2013-07-28 12:12:00,
2013-07-28 07:18:00,50.8,46.1,30.06,NW,316,0.0,0.0,84,0.00,,,0.00,WUHU216DAVISVP2,2013-07-28 12:18:00,
2013-07-28 07:23:00,51.0,46.0,30.06,NW,316,0.0,0.0,83,0.00,,,0.00,WUHU216DAVISVP2,2013-07-28 12:23:00,
2013-07-28 07:28:00,51.6,46.6,30.06,NW,316,0.0,0.0,83,0.00,,,0.00,WUHU216DAVISVP2,2013-07-28 12:28:00,
2013-07-28 07:33:00,52.3,47.0,30.07,NW,316,0.0,0.0,82,0.00,,,0.00,WUHU216DAVISVP2,2013-07-28 12:33:00,
2013-07-28 07:37:00,52.9,46.9,30.07,NW,316,0.0,0.0,80,0.00,,,0.00,WUHU216DAVISVP2,2013-07-28 12:37:00,
2013-07-28 07:43:00,53.4,47.4,30.07,NW,316,0.0,0.0,80,0.00,,,0.00,WUHU216DAVISVP2,2013-07-28 12:43:00,
2013-07-28 07:48:00,54.0,47.6,30.07,NW,316,0.0,0.0,79,0.00,,,0.00,WUHU216DAVISVP2,2013-07-28 12:48:00,
2013-07-28 07:53:00,54.9,48.2,30.07,NW,316,0.0,0.0,78,0.00,,,0.00,WUHU216DAVISVP2,2013-07-28 12:53:00,
2013-07-28 07:58:00,56.2,48.7,30.06,NW,317,0.0,0.0,76,0.00,,,0.00,WUHU216DAVISVP2,2013-07-28 12:58:00,
2013-07-28 08:03:00,57.4,48.9,30.06,ENE,57,0.0,1.0,73,0.00,,,0.00,WUHU216DAVISVP2,2013-07-28 13:03:00,
2013-07-28 08:08:00,58.4,48.8,30.06,ENE,65,0.0,1.0,70,0.00,,,0.00,WUHU216DAVISVP2,2013-07-28 13:08:00,
2013-07-28 08:13:00,59.2,49.2,30.06,ENE,65,0.0,1.0,69,0.00,,,0.00,WUHU216DAVISVP2,2013-07-28 13:13:00,
2013-07-28 08:18:00,59.5,49.1,30.06,ENE,57,0.0,1.0,68,0.00,,,0.00,WUHU216DAVISVP2,2013-07-28 13:18:00,
2013-07-28 08:23:00,59.9,49.1,30.06,NW,314,0.0,1.0,67,0.00,,,0.00,WUHU216DAVISVP2,2013-07-28 13:23:00,
2013-07-28 08:28:00,59.8,48.6,30.06,NW,308,0.0,1.0,66,0.00,,,0.00,WUHU216DAVISVP2,2013-07-28 13:28:00,
2013-07-28 08:33:00,59.8,48.6,30.07,WNW,291,0.0,1.0,66,0.00,,,0.00,WUHU216DAVISVP2,2013-07-28 13:33:00,
2013-07-28 08:38:00,60.5,48.8,30.07,ENE,78,0.0,1.0,65,0.00,,,0.00,WUHU216DAVISVP2,2013-07-28 13:38:00,
2013-07-28 08:43:00,61.0,47.6,30.07,ENE,69,0.0,1.0,61,0.00,,,0.00,WUHU216DAVISVP2,2013-07-28 13:43:00,
2013-07-28 08:48:00,61.4,48.0,30.07,WNW,298,0.0,1.0,61,0.00,,,0.00,WUHU216DAVISVP2,2013-07-28 13:48:00,
2013-07-28 08:53:00,61.9,47.5,30.07,WNW,298,0.0,1.0,59,0.00,,,0.00,WUHU216DAVISVP2,2013-07-28 13:53:00,
2013-07-28 08:58:00,61.7,47.4,30.07,WNW,295,0.0,1.0,59,0.00,,,0.00,WUHU216DAVISVP2,2013-07-28 13:58:00,
2013-07-28 09:03:00,61.8,47.4,30.07,WNW,295,0.0,1.0,59,0.00,,,0.00,WUHU216DAVISVP2,2013-07-28 14:03:00,
2013-07-28 09:08:00,62.1,46.3,30.08,WNW,301,1.0,3.0,56,0.00,,,0.00,WUHU216DAVISVP2,2013-07-28 14:08:00,
2013-07-28 09:13:00,62.2,47.4,30.08,WNW,291,0.0,3.0,58,0.00,,,0.00,WUHU216DAVISVP2,2013-07-28 14:13:00,
2013-07-28 09:18:00,62.3,46.5,30.08,West,276,1.0,4.0,56,0.00,,,0.00,WUHU216DAVISVP2,2013-07-28 14:18:00,
2013-07-28 09:23:00,63.0,47.6,30.08,West,274,0.0,4.0,57,0.00,,,0.00,WUHU216DAVISVP2,2013-07-28 14:23:00,
2013-07-28 09:28:00,63.2,46.4,30.08,WSW,257,0.0,4.0,54,0.00,,,0.00,WUHU216DAVISVP2,2013-07-28 14:28:00,
2013-07-28 09:33:00,63.4,47.0,30.08,WSW,252,0.0,4.0,55,0.00,,,0.00,WUHU216DAVISVP2,2013-07-28 14:33:00,
2013-07-28 09:38:00,63.8,47.4,30.08,WNW,291,0.0,3.0,55,0.00,,,0.00,WUHU216DAVISVP2,2013-07-28 14:38:00,
2013-07-28 09:43:00,64.3,46.9,30.08,WNW,286,0.0,3.0,53,0.00,,,0.00,WUHU216DAVISVP2,2013-07-28 14:43:00,
2013-07-28 09:48:00,64.5,45.5,30.08,WNW,293,0.0,0.0,50,0.00,,,0.00,WUHU216DAVISVP2,2013-07-28 14:48:00,
2013-07-28 09:53:00,64.8,46.3,30.08,SW,229,0.0,0.0,51,0.00,,,0.00,WUHU216DAVISVP2,2013-07-28 14:53:00,
2013-07-28 09:58:00,64.2,44.6,30.07,West,262,0.0,5.0,49,0.00,,,0.00,WUHU216DAVISVP2,2013-07-28 14:58:00,
2013-07-28 10:03:00,64.5,44.9,30.07,ENE,76,0.0,5.0,49,0.00,,,0.00,WUHU216DAVISVP2,2013-07-28 15:03:00,
2013-07-28 10:08:00,64.7,44.6,30.07,NW,317,4.0,5.0,48,0.00,,,0.00,WUHU216DAVISVP2,2013-07-28 15:08:00,
2013-07-28 10:13:00,64.5,45.5,30.07,NE,40,1.0,7.0,50,0.00,,,0.00,WUHU216DAVISVP2,2013-07-28 15:13:00,
2013-07-28 10:18:00,65.3,45.1,30.07,West,271,0.0,7.0,48,0.00,,,0.00,WUHU216DAVISVP2,2013-07-28 15:18:00,
2013-07-28 10:23:00,66.0,45.7,30.07,ENE,69,3.0,7.0,48,0.00,,,0.00,WUHU216DAVISVP2,2013-07-28 15:23:00,
2013-07-28 10:28:00,65.7,46.0,30.07,ENE,78,1.0,4.0,49,0.00,,,0.00,WUHU216DAVISVP2,2013-07-28 15:28:00,
2013-07-28 10:33:00,65.7,46.6,30.07,WSW,248,1.0,5.0,50,0.00,,,0.00,WUHU216DAVISVP2,2013-07-28 15:33:00,
2013-07-28 10:38:00,65.6,46.5,30.07,West,261,0.0,5.0,50,0.00,,,0.00,WUHU216DAVISVP2,2013-07-28 15:38:00,
2013-07-28 10:43:00,66.4,46.7,30.07,East,101,0.0,5.0,49,0.00,,,0.00,WUHU216DAVISVP2,2013-07-28 15:43:00,
2013-07-28 10:48:00,66.9,47.7,30.07,East,88,0.0,5.0,50,0.00,,,0.00,WUHU216DAVISVP2,2013-07-28 15:48:00,
2013-07-28 10:53:00,67.0,47.2,30.07,SE,129,0.0,4.0,49,0.00,,,0.00,WUHU216DAVISVP2,2013-07-28 15:53:00,
2013-07-28 10:58:00,67.3,45.2,30.07,ENE,68,3.0,5.0,45,0.00,,,0.00,WUHU216DAVISVP2,2013-07-28 15:58:00,
2013-07-28 11:03:00,67.4,46.5,30.08,East,86,0.0,5.0,47,0.00,,,0.00,WUHU216DAVISVP2,2013-07-28 16:03:00,
2013-07-28 11:08:00,67.9,44.6,30.07,West,279,1.0,5.0,43,0.00,,,0.00,WUHU216DAVISVP2,2013-07-28 16:08:00,
2013-07-28 11:13:00,67.6,44.9,30.07,West,276,3.0,5.0,44,0.00,,,0.00,WUHU216DAVISVP2,2013-07-28 16:13:00,
2013-07-28 11:18:00,67.9,44.6,30.07,NNE,26,0.0,4.0,43,0.00,,,0.00,WUHU216DAVISVP2,2013-07-28 16:18:00,
2013-07-28 11:23:00,68.4,44.3,30.07,ENE,72,4.0,5.0,42,0.00,,,0.00,WUHU216DAVISVP2,2013-07-28 16:23:00,
2013-07-28 11:28:00,68.2,44.8,30.07,West,264,1.0,5.0,43,0.00,,,0.00,WUHU216DAVISVP2,2013-07-28 16:28:00,
2013-07-28 11:33:00,68.5,45.0,30.07,NE,37,1.0,5.0,43,0.00,,,0.00,WUHU216DAVISVP2,2013-07-28 16:33:00,
2013-07-28 11:38:00,68.5,45.0,30.07,ENE,63,1.0,5.0,43,0.00,,,0.00,WUHU216DAVISVP2,2013-07-28 16:38:00,
2013-07-28 11:43:00,69.0,42.9,30.07,NW,309,0.0,5.0,39,0.00,,,0.00,WUHU216DAVISVP2,2013-07-28 16:43:00,
2013-07-28 11:44:00,69.1,43.6,30.07,NE,41,3.0,5.0,40,0.00,,,0.00,WUHU216DAVISVP2,2013-07-28 16:44:00,
2013-07-28 11:49:00,69.8,44.3,30.07,West,274,3.0,5.0,40,0.00,,,0.00,WUHU216DAVISVP2,2013-07-28 16:49:00,
2013-07-28 11:54:00,69.6,44.1,30.06,WNW,296,1.0,5.0,40,0.00,,,0.00,WUHU216DAVISVP2,2013-07-28 16:54:00,
2013-07-28 11:59:00,69.9,43.0,30.06,West,270,2.0,5.0,38,0.00,,,0.00,WUHU216DAVISVP2,2013-07-28 16:59:00,
2013-07-28 12:04:00,69.7,44.2,30.06,ENE,66,4.0,7.0,40,0.00,,,0.00,WUHU216DAVISVP2,2013-07-28 17:04:00,
2013-07-28 12:09:00,70.2,44.6,30.07,NNW,342,0.0,7.0,40,0.00,,,0.00,WUHU216DAVISVP2,2013-07-28 17:09:00,
2013-07-28 12:14:00,70.7,45.1,30.06,NNE,16,1.0,7.0,40,0.00,,,0.00,WUHU216DAVISVP2,2013-07-28 17:14:00,
2013-07-28 12:19:00,70.6,44.3,30.06,NNE,23,0.0,7.0,39,0.00,,,0.00,WUHU216DAVISVP2,2013-07-28 17:19:00,
2013-07-28 12:24:00,70.5,45.6,30.06,WSW,244,0.0,5.0,41,0.00,,,0.00,WUHU216DAVISVP2,2013-07-28 17:24:00,
2013-07-28 12:29:00,70.6,44.3,30.06,NW,317,1.0,7.0,39,0.00,,,0.00,WUHU216DAVISVP2,2013-07-28 17:29:00,
2013-07-28 12:34:00,70.3,44.2,30.06,East,99,2.0,7.0,39,0.00,,,0.00,WUHU216DAVISVP2,2013-07-28 17:34:00,
2013-07-28 12:39:00,69.8,45.0,30.06,ESE,109,2.0,7.0,41,0.00,,,0.00,WUHU216DAVISVP2,2013-07-28 17:39:00,
2013-07-28 12:44:00,70.3,45.4,30.06,NE,42,2.0,7.0,41,0.00,,,0.00,WUHU216DAVISVP2,2013-07-28 17:44:00,
2013-07-28 12:49:00,70.5,45.6,30.06,North,2,1.0,7.0,41,0.00,,,0.00,WUHU216DAVISVP2,2013-07-28 17:49:00,
2013-07-28 12:54:00,70.5,44.2,30.06,ENE,74,5.0,7.0,39,0.00,,,0.00,WUHU216DAVISVP2,2013-07-28 17:54:00,
2013-07-28 12:59:00,70.0,45.8,30.06,East,97,4.0,7.0,42,0.00,,,0.00,WUHU216DAVISVP2,2013-07-28 17:59:00,
2013-07-28 13:04:00,70.5,45.6,30.06,SE,143,3.0,5.0,41,0.00,,,0.00,WUHU216DAVISVP2,2013-07-28 18:04:00,
2013-07-28 13:09:00,70.8,45.2,30.06,East,83,0.0,5.0,40,0.00,,,0.00,WUHU216DAVISVP2,2013-07-28 18:09:00,
2013-07-28 13:14:00,71.1,44.8,30.06,ESE,104,2.0,5.0,39,0.00,,,0.00,WUHU216DAVISVP2,2013-07-28 18:14:00,
2013-07-28 13:19:00,71.3,44.9,30.06,ENE,72,4.0,10.0,39,0.00,,,0.00,WUHU216DAVISVP2,2013-07-28 18:19:00,
2013-07-28 13:24:00,71.1,44.8,30.06,ENE,78,1.0,10.0,39,0.00,,,0.00,WUHU216DAVISVP2,2013-07-28 18:24:00,
2013-07-28 13:29:00,71.4,45.7,30.06,NE,44,1.0,10.0,40,0.00,,,0.00,WUHU216DAVISVP2,2013-07-28 18:29:00,
2013-07-28 13:34:00,71.5,45.8,30.06,ENE,70,3.0,10.0,40,0.00,,,0.00,WUHU216DAVISVP2,2013-07-28 18:34:00,
2013-07-28 13:39:00,72.0,46.2,30.06,NE,46,3.0,5.0,40,0.00,,,0.00,WUHU216DAVISVP2,2013-07-28 18:39:00,
2013-07-28 13:44:00,71.6,45.2,30.05,SE,128,1.0,5.0,39,0.00,,,0.00,WUHU216DAVISVP2,2013-07-28 18:44:00,
2013-07-28 13:49:00,72.4,45.2,30.05,WNW,282,1.0,4.0,38,0.00,,,0.00,WUHU216DAVISVP2,2013-07-28 18:49:00,
2013-07-28 13:54:00,72.4,45.9,30.06,West,281,1.0,9.0,39,0.00,,,0.00,WUHU216DAVISVP2,2013-07-28 18:54:00,
2013-07-28 13:59:00,72.4,45.2,30.06,WNW,293,3.0,9.0,38,0.00,,,0.00,WUHU216DAVISVP2,2013-07-28 18:59:00,
2013-07-28 14:04:00,72.0,44.9,30.05,East,91,1.0,9.0,38,0.00,,,0.00,WUHU216DAVISVP2,2013-07-28 19:04:00,
2013-07-28 14:09:00,72.0,44.9,30.05,West,267,0.0,9.0,38,0.00,,,0.00,WUHU216DAVISVP2,2013-07-28 19:09:00,
2013-07-28 14:14:00,71.9,46.2,30.05,WNW,297,1.0,9.0,40,0.00,,,0.00,WUHU216DAVISVP2,2013-07-28 19:14:00,
2013-07-28 14:19:00,73.1,46.5,30.05,NNE,25,1.0,5.0,39,0.00,,,0.00,WUHU216DAVISVP2,2013-07-28 19:19:00,
2013-07-28 14:24:00,72.9,45.7,30.05,WNW,287,5.0,10.0,38,0.00,,,0.00,WUHU216DAVISVP2,2013-07-28 19:24:00,
2013-07-28 14:29:00,72.8,45.6,30.05,NW,326,2.0,10.0,38,0.00,,,0.00,WUHU216DAVISVP2,2013-07-28 19:29:00,
2013-07-28 14:34:00,73.3,46.0,30.05,NW,311,0.0,10.0,38,0.00,,,0.00,WUHU216DAVISVP2,2013-07-28 19:34:00,
2013-07-28 14:39:00,73.3,46.0,30.05,SSW,201,3.0,10.0,38,0.00,,,0.00,WUHU216DAVISVP2,2013-07-28 19:39:00,
2013-07-28 14:44:00,73.0,45.0,30.05,WSW,254,1.0,7.0,37,0.00,,,0.00,WUHU216DAVISVP2,2013-07-28 19:44:00,
2013-07-28 14:49:00,73.3,45.3,30.04,SSE,162,0.0,7.0,37,0.00,,,0.00,WUHU216DAVISVP2,2013-07-28 19:49:00,
2013-07-28 14:54:00,73.6,44.8,30.04,SW,233,1.0,7.0,36,0.00,,,0.00,WUHU216DAVISVP2,2013-07-28 19:54:00,
2013-07-28 14:59:00,73.7,46.4,30.04,WNW,290,3.0,5.0,38,0.00,,,0.00,WUHU216DAVISVP2,2013-07-28 19:59:00,
2013-07-28 15:04:00,73.9,46.6,30.04,ENE,75,0.0,4.0,38,0.00,,,0.00,WUHU216DAVISVP2,2013-07-28 20:04:00,
2013-07-28 15:09:00,74.1,46.0,30.04,NNW,342,3.0,4.0,37,0.00,,,0.00,WUHU216DAVISVP2,2013-07-28 20:09:00,
2013-07-28 15:14:00,74.2,46.8,30.04,North,7,1.0,4.0,38,0.00,,,0.00,WUHU216DAVISVP2,2013-07-28 20:14:00,
2013-07-28 15:19:00,75.2,46.3,30.04,WSW,244,3.0,4.0,36,0.00,,,0.00,WUHU216DAVISVP2,2013-07-28 20:19:00,
2013-07-28 15:24:00,75.1,45.4,30.04,NW,319,5.0,8.0,35,0.00,,,0.00,WUHU216DAVISVP2,2013-07-28 20:24:00,
2013-07-28 15:29:00,74.5,45.6,30.04,NW,320,3.0,8.0,36,0.00,,,0.00,WUHU216DAVISVP2,2013-07-28 20:29:00,
2013-07-28 15:34:00,74.0,45.9,30.04,NW,326,3.0,8.0,37,0.00,,,0.00,WUHU216DAVISVP2,2013-07-28 20:34:00,
2013-07-28 15:39:00,74.3,45.5,30.04,NNE,30,1.0,8.0,36,0.00,,,0.00,WUHU216DAVISVP2,2013-07-28 20:39:00,
2013-07-28 15:44:00,73.9,44.4,30.04,West,271,1.0,5.0,35,0.00,,,0.00,WUHU216DAVISVP2,2013-07-28 20:44:00,
2013-07-28 15:49:00,74.7,46.6,30.04,NW,306,1.0,4.0,37,0.00,,,0.00,WUHU216DAVISVP2,2013-07-28 20:49:00,
2013-07-28 15:54:00,75.0,45.3,30.04,WNW,295,2.0,4.0,35,0.00,,,0.00,WUHU216DAVISVP2,2013-07-28 20:54:00,
2013-07-28 15:59:00,74.6,45.7,30.04,WNW,300,3.0,5.0,36,0.00,,,0.00,WUHU216DAVISVP2,2013-07-28 20:59:00,
2013-07-28 16:04:00,74.6,45.7,30.03,WNW,285,2.0,5.0,36,0.00,,,0.00,WUHU216DAVISVP2,2013-07-28 21:04:00,
2013-07-28 16:09:00,74.9,45.2,30.03,East,93,3.0,5.0,35,0.00,,,0.00,WUHU216DAVISVP2,2013-07-28 21:09:00,
2013-07-28 16:14:00,74.2,43.9,30.03,NW,310,2.0,5.0,34,0.00,,,0.00,WUHU216DAVISVP2,2013-07-28 21:14:00,
2013-07-28 16:19:00,74.5,45.6,30.03,ESE,113,0.0,4.0,36,0.00,,,0.00,WUHU216DAVISVP2,2013-07-28 21:19:00,
2013-07-28 16:24:00,75.1,46.9,30.03,North,6,1.0,5.0,37,0.00,,,0.00,WUHU216DAVISVP2,2013-07-28 21:24:00,
2013-07-28 16:29:00,75.7,46.7,30.03,NE,40,1.0,5.0,36,0.00,,,0.00,WUHU216DAVISVP2,2013-07-28 21:29:00,
2013-07-28 16:34:00,75.4,44.9,30.03,East,84,3.0,5.0,34,0.00,,,0.00,WUHU216DAVISVP2,2013-07-28 21:34:00,
2013-07-28 16:39:00,74.9,44.5,30.03,East,93,2.0,5.0,34,0.00,,,0.00,WUHU216DAVISVP2,2013-07-28 21:39:00,
2013-07-28 16:44:00,75.1,46.2,30.03,East,80,4.0,5.0,36,0.00,,,0.00,WUHU216DAVISVP2,2013-07-28 21:44:00,
2013-07-28 16:49:00,75.2,47.0,30.02,WSW,240,1.0,5.0,37,0.00,,,0.00,WUHU216DAVISVP2,2013-07-28 21:49:00,
2013-07-28 16:54:00,75.3,46.3,30.03,East,90,2.0,5.0,36,0.00,,,0.00,WUHU216DAVISVP2,2013-07-28 21:54:00,
2013-07-28 16:59:00,74.9,45.2,30.02,WNW,302,1.0,5.0,35,0.00,,,0.00,WUHU216DAVISVP2,2013-07-28 21:59:00,
2013-07-28 17:04:00,74.9,47.5,30.02,ENE,61,3.0,5.0,38,0.00,,,0.00,WUHU216DAVISVP2,2013-07-28 22:04:00,
2013-07-28 17:09:00,74.7,47.3,30.03,ENE,71,1.0,12.0,38,0.00,,,0.00,WUHU216DAVISVP2,2013-07-28 22:09:00,
2013-07-28 17:14:00,74.6,47.9,30.03,ESE,108,2.0,12.0,39,0.00,,,0.00,WUHU216DAVISVP2,2013-07-28 22:14:00,
2013-07-28 17:19:00,74.6,48.6,30.02,NE,44,1.0,12.0,40,0.00,,,0.00,WUHU216DAVISVP2,2013-07-28 22:19:00,
2013-07-28 17:24:00,74.9,46.7,30.02,NE,56,3.0,7.0,37,0.00,,,0.00,WUHU216DAVISVP2,2013-07-28 22:24:00,
2013-07-28 17:29:00,74.9,47.5,30.02,ENE,61,1.0,7.0,38,0.00,,,0.00,WUHU216DAVISVP2,2013-07-28 22:29:00,
2013-07-28 17:34:00,75.5,47.3,30.03,ENE,72,0.0,5.0,37,0.00,,,0.00,WUHU216DAVISVP2,2013-07-28 22:34:00,
2013-07-28 17:39:00,75.4,47.2,30.02,East,84,1.0,5.0,37,0.00,,,0.00,WUHU216DAVISVP2,2013-07-28 22:39:00,
2013-07-28 17:44:00,75.6,48.1,30.02,ENE,69,3.0,5.0,38,0.00,,,0.00,WUHU216DAVISVP2,2013-07-28 22:44:00,
2013-07-28 17:49:00,75.4,48.6,30.02,East,82,1.0,5.0,39,0.00,,,0.00,WUHU216DAVISVP2,2013-07-28 22:49:00,
2013-07-28 17:54:00,75.1,48.3,30.02,East,101,0.0,5.0,39,0.00,,,0.00,WUHU216DAVISVP2,2013-07-28 22:54:00,
2013-07-28 17:59:00,75.7,48.9,30.02,East,82,0.0,5.0,39,0.00,,,0.00,WUHU216DAVISVP2,2013-07-28 22:59:00,
2013-07-28 18:04:00,75.7,48.3,30.03,NNE,25,0.0,5.0,38,0.00,,,0.00,WUHU216DAVISVP2,2013-07-28 23:04:00,
2013-07-28 18:09:00,75.6,48.9,30.02,NE,51,3.0,5.0,39,0.00,,,0.00,WUHU216DAVISVP2,2013-07-28 23:09:00,
2013-07-28 18:14:00,75.1,48.4,30.02,ENE,61,1.0,5.0,39,0.00,,,0.00,WUHU216DAVISVP2,2013-07-28 23:14:00,
2013-07-28 18:19:00,75.0,48.2,30.03,East,99,7.0,7.0,39,0.00,,,0.00,WUHU216DAVISVP2,2013-07-28 23:19:00,
2013-07-28 18:24:00,74.8,48.8,30.03,ESE,113,0.0,7.0,40,0.00,,,0.00,WUHU216DAVISVP2,2013-07-28 23:24:00,
2013-07-28 18:29:00,75.1,48.3,30.03,East,89,3.0,7.0,39,0.00,,,0.00,WUHU216DAVISVP2,2013-07-28 23:29:00,
2013-07-28 18:34:00,74.7,48.1,30.03,ENE,69,1.0,7.0,39,0.00,,,0.00,WUHU216DAVISVP2,2013-07-28 23:34:00,
2013-07-28 18:39:00,75.0,49.6,30.03,NNW,329,1.0,4.0,41,0.00,,,0.00,WUHU216DAVISVP2,2013-07-28 23:39:00,
2013-07-28 18:44:00,75.0,48.4,30.03,ENE,57,0.0,4.0,39,0.00,,,0.00,WUHU216DAVISVP2,2013-07-28 23:44:00,
2013-07-28 18:49:00,74.9,49.6,30.02,ESE,103,1.0,4.0,41,0.00,,,0.00,WUHU216DAVISVP2,2013-07-28 23:49:00,
2013-07-28 18:54:00,74.4,49.2,30.02,ENE,72,1.0,4.0,41,0.00,,,0.00,WUHU216DAVISVP2,2013-07-28 23:54:00,
2013-07-28 18:59:00,73.9,48.7,30.03,East,101,1.0,4.0,41,0.00,,,0.00,WUHU216DAVISVP2,2013-07-28 23:59:00,
2013-07-28 19:04:00,73.5,49.0,30.03,ENE,76,7.0,7.0,42,0.00,,,0.00,WUHU216DAVISVP2,2013-07-29 00:04:00,
2013-07-28 19:09:00,72.8,48.3,30.03,ENE,60,0.0,7.0,42,0.00,,,0.00,WUHU216DAVISVP2,2013-07-29 00:09:00,
2013-07-28 19:14:00,72.6,48.8,30.03,East,89,0.0,7.0,43,0.00,,,0.00,WUHU216DAVISVP2,2013-07-29 00:14:00,
2013-07-28 19:19:00,72.8,49.0,30.03,East,82,0.0,7.0,43,0.00,,,0.00,WUHU216DAVISVP2,2013-07-29 00:19:00,
2013-07-28 19:24:00,72.4,48.6,30.03,East,95,1.0,7.0,43,0.00,,,0.00,WUHU216DAVISVP2,2013-07-29 00:24:00,
2013-07-28 19:29:00,72.3,49.2,30.04,East,94,1.0,4.0,44,0.00,,,0.00,WUHU216DAVISVP2,2013-07-29 00:29:00,
2013-07-28 19:34:00,72.1,48.4,30.03,East,94,2.0,5.0,43,0.00,,,0.00,WUHU216DAVISVP2,2013-07-29 00:34:00,
2013-07-28 19:39:00,71.9,49.4,30.04,ESE,102,0.0,5.0,45,0.00,,,0.00,WUHU216DAVISVP2,2013-07-29 00:39:00,
2013-07-28 19:44:00,72.1,48.9,30.03,SE,127,0.0,5.0,44,0.00,,,0.00,WUHU216DAVISVP2,2013-07-29 00:44:00,
2013-07-28 19:49:00,71.9,48.8,30.03,East,86,2.0,7.0,44,0.00,,,0.00,WUHU216DAVISVP2,2013-07-29 00:49:00,
2013-07-28 19:54:00,71.4,48.9,30.03,East,89,1.0,7.0,45,0.00,,,0.00,WUHU216DAVISVP2,2013-07-29 00:54:00,
2013-07-28 19:59:00,71.5,49.0,30.03,ESE,122,0.0,7.0,45,0.00,,,0.00,WUHU216DAVISVP2,2013-07-29 00:59:00,
2013-07-28 20:04:00,71.4,48.9,30.03,ENE,74,1.0,7.0,45,0.00,,,0.00,WUHU216DAVISVP2,2013-07-29 01:04:00,
2013-07-28 20:09:00,70.8,48.4,30.03,ENE,74,1.0,5.0,45,0.00,,,0.00,WUHU216DAVISVP2,2013-07-29 01:09:00,
2013-07-28 20:14:00,70.4,48.6,30.04,East,94,3.0,5.0,46,0.00,,,0.00,WUHU216DAVISVP2,2013-07-29 01:14:00,
2013-07-28 20:19:00,70.1,48.9,30.04,East,91,0.0,5.0,47,0.00,,,0.00,WUHU216DAVISVP2,2013-07-29 01:19:00,
2013-07-28 20:24:00,69.9,48.8,30.03,East,84,0.0,4.0,47,0.00,,,0.00,WUHU216DAVISVP2,2013-07-29 01:24:00,
2013-07-28 20:29:00,69.6,49.1,30.03,ESE,117,1.0,4.0,48,0.00,,,0.00,WUHU216DAVISVP2,2013-07-29 01:29:00,
2013-07-28 20:34:00,69.4,48.9,30.04,East,92,0.0,1.0,48,0.00,,,0.00,WUHU216DAVISVP2,2013-07-29 01:34:00,
2013-07-28 20:39:00,69.1,49.2,30.04,ENE,77,1.0,1.0,49,0.00,,,0.00,WUHU216DAVISVP2,2013-07-29 01:39:00,
2013-07-28 20:44:00,68.7,49.4,30.04,ENE,75,0.0,1.0,50,0.00,,,0.00,WUHU216DAVISVP2,2013-07-29 01:44:00,
2013-07-28 20:49:00,68.4,49.6,30.04,ENE,75,0.0,1.0,51,0.00,,,0.00,WUHU216DAVISVP2,2013-07-29 01:49:00,
2013-07-28 20:55:00,68.0,49.8,30.04,ENE,75,0.0,1.0,52,0.00,,,0.00,WUHU216DAVISVP2,2013-07-29 01:55:00,
2013-07-28 21:00:00,67.6,49.4,30.04,ENE,75,0.0,1.0,52,0.00,,,0.00,WUHU216DAVISVP2,2013-07-29 02:00:00,
2013-07-28 21:05:00,67.1,49.5,30.04,ENE,75,0.0,1.0,53,0.00,,,0.00,WUHU216DAVISVP2,2013-07-29 02:05:00,
2013-07-28 21:10:00,66.6,49.5,30.04,ENE,75,0.0,1.0,54,0.00,,,0.00,WUHU216DAVISVP2,2013-07-29 02:10:00,
2013-07-28 21:15:00,66.3,49.8,30.04,ENE,75,0.0,0.0,55,0.00,,,0.00,WUHU216DAVISVP2,2013-07-29 02:15:00,
2013-07-28 21:20:00,65.9,49.4,30.04,ENE,75,0.0,0.0,55,0.00,,,0.00,WUHU216DAVISVP2,2013-07-29 02:20:00,
2013-07-28 21:25:00,65.6,49.6,30.04,ENE,75,0.0,0.0,56,0.00,,,0.00,WUHU216DAVISVP2,2013-07-29 02:25:00,
2013-07-28 21:30:00,65.0,49.5,30.05,ENE,75,0.0,0.0,57,0.00,,,0.00,WUHU216DAVISVP2,2013-07-29 02:30:00,
2013-07-28 21:35:00,64.6,49.6,30.05,ENE,75,0.0,0.0,58,0.00,,,0.00,WUHU216DAVISVP2,2013-07-29 02:35:00,
2013-07-28 21:40:00,64.2,50.2,30.05,ENE,75,0.0,0.0,60,0.00,,,0.00,WUHU216DAVISVP2,2013-07-29 02:40:00,
2013-07-28 21:45:00,64.1,49.9,30.05,ENE,75,0.0,0.0,60,0.00,,,0.00,WUHU216DAVISVP2,2013-07-29 02:45:00,
2013-07-28 21:50:00,63.8,50.1,30.05,ENE,75,0.0,0.0,61,0.00,,,0.00,WUHU216DAVISVP2,2013-07-29 02:50:00,
2013-07-28 21:55:00,63.5,50.2,30.05,ENE,75,0.0,0.0,62,0.00,,,0.00,WUHU216DAVISVP2,2013-07-29 02:55:00,
2013-07-28 22:00:00,63.2,50.0,30.06,ENE,75,0.0,0.0,62,0.00,,,0.00,WUHU216DAVISVP2,2013-07-29 03:00:00,
2013-07-28 22:06:00,63.0,50.2,30.06,ENE,75,0.0,0.0,63,0.00,,,0.00,WUHU216DAVISVP2,2013-07-29 03:06:00,
2013-07-28 22:11:00,62.7,50.3,30.06,ENE,75,0.0,0.0,64,0.00,,,0.00,WUHU216DAVISVP2,2013-07-29 03:11:00,
2013-07-28 22:17:00,62.6,50.8,30.06,ENE,75,0.0,0.0,65,0.00,,,0.00,WUHU216DAVISVP2,2013-07-29 03:17:00,
2013-07-28 22:22:00,62.6,50.4,30.06,ENE,75,0.0,0.0,64,0.00,,,0.00,WUHU216DAVISVP2,2013-07-29 03:22:00,
2013-07-28 22:27:00,62.8,50.6,30.06,ENE,75,0.0,0.0,64,0.00,,,0.00,WUHU216DAVISVP2,2013-07-29 03:27:00,
2013-07-28 22:32:00,62.8,50.0,30.06,ENE,75,0.0,1.0,63,0.00,,,0.00,WUHU216DAVISVP2,2013-07-29 03:32:00,
2013-07-28 22:37:00,62.7,49.9,30.07,ENE,75,0.0,1.0,63,0.00,,,0.00,WUHU216DAVISVP2,2013-07-29 03:37:00,
2013-07-28 22:42:00,62.6,50.4,30.06,ENE,75,0.0,1.0,64,0.00,,,0.00,WUHU216DAVISVP2,2013-07-29 03:42:00,
2013-07-28 22:47:00,62.5,50.3,30.06,ENE,75,0.0,1.0,64,0.00,,,0.00,WUHU216DAVISVP2,2013-07-29 03:47:00,
2013-07-28 22:53:00,62.4,50.2,30.07,ENE,75,0.0,1.0,64,0.00,,,0.00,WUHU216DAVISVP2,2013-07-29 03:53:00,
2013-07-28 22:58:00,62.3,50.1,30.07,East,84,0.0,1.0,64,0.00,,,0.00,WUHU216DAVISVP2,2013-07-29 03:58:00,
2013-07-28 23:01:00,62.3,49.7,30.06,East,84,1.0,1.0,63,0.00,,,0.00,WUHU216DAVISVP2,2013-07-29 04:01:00,
2013-07-28 23:06:00,62.3,49.7,30.06,ESE,102,0.0,1.0,63,0.00,,,0.00,WUHU216DAVISVP2,2013-07-29 04:06:00,
2013-07-28 23:11:00,62.2,49.6,30.07,East,98,0.0,1.0,63,0.00,,,0.00,WUHU216DAVISVP2,2013-07-29 04:11:00,
2013-07-28 23:16:00,62.0,49.4,30.07,East,98,0.0,1.0,63,0.00,,,0.00,WUHU216DAVISVP2,2013-07-29 04:16:00,
2013-07-28 23:21:00,61.8,49.2,30.07,East,98,0.0,1.0,63,0.00,,,0.00,WUHU216DAVISVP2,2013-07-29 04:21:00,
2013-07-28 23:26:00,61.6,49.0,30.07,East,97,0.0,1.0,63,0.00,,,0.00,WUHU216DAVISVP2,2013-07-29 04:26:00,
2013-07-28 23:32:00,61.6,49.3,30.07,East,92,0.0,1.0,64,0.00,,,0.00,WUHU216DAVISVP2,2013-07-29 04:32:00,
2013-07-28 23:37:00,61.6,49.5,30.07,East,93,0.0,1.0,64,0.00,,,0.00,WUHU216DAVISVP2,2013-07-29 04:37:00,
2013-07-28 23:42:00,61.5,49.4,30.07,East,83,1.0,1.0,64,0.00,,,0.00,WUHU216DAVISVP2,2013-07-29 04:42:00,
2013-07-28 23:47:00,61.5,49.8,30.07,East,82,0.0,1.0,65,0.00,,,0.00,WUHU216DAVISVP2,2013-07-29 04:47:00,
2013-07-28 23:52:00,61.3,49.6,30.07,ENE,69,0.0,1.0,65,0.00,,,0.00,WUHU216DAVISVP2,2013-07-29 04:52:00,
2013-07-28 23:57:00,61.2,49.9,30.07,ENE,71,0.0,1.0,66,0.00,,,0.00,WUHU216DAVISVP2,2013-07-29 04:57:00,